Location: Dumpton Point
(51.3500°N, 1.4433°E)
Time: 10:13:14
(UTC+00:00)

IRIDIUM 33 DEB - Visible Passes

Search period start: 17 August 2022 00:00
Search period end: 27 August 2022 00:00
Orbit: 645 x 748 km, 86.2° (Epoch: 15 August)

Date Brightness Start Highest point End Pass type
(mag) Time Alt. Az. Time Alt. Az. Time Alt. Az.
17 Aug ? 20:33:02 10° NNE 20:36:57 27° ENE 20:39:23 18° ESE visible
17 Aug ? 22:11:52 10° NNW 22:16:08 40° W 22:18:09 26° SW visible
18 Aug ? 21:14:16 10° N 21:18:51 71° E 21:21:02 31° SSE visible
18 Aug ? 22:54:35 10° NW 22:57:22 16° WNW 22:59:49 11° WSW visible
19 Aug ? 20:17:20 10° NNE 20:21:10 25° ENE 20:23:54 15° ESE visible
19 Aug ? 21:56:04 10° NNW 22:00:24 43° W 22:02:41 25° SW visible
20 Aug ? 20:58:28 10° N 21:03:03 65° E 21:05:32 27° SSE visible
20 Aug ? 22:38:36 10° NW 22:41:38 18° WNW 22:44:19 11° WSW visible
21 Aug ? 20:01:35 10° NNE 20:05:18 23° ENE 20:08:23 13° ESE visible
21 Aug ? 21:40:10 10° NNW 21:44:36 48° W 21:47:10 23° SSW visible
22 Aug ? 20:42:36 10° N 20:47:11 59° E 20:50:01 23° SSE visible
22 Aug ? 22:22:33 10° NNW 22:25:49 19° WNW 22:28:48 11° WSW visible
23 Aug ? 19:45:45 10° NNE 19:49:21 22° ENE 19:52:52 11° ESE visible
23 Aug ? 21:24:12 10° NNW 21:28:42 52° W 21:31:38 21° SSW visible
24 Aug ? 20:26:40 10° N 20:31:13 54° E 20:34:29 19° SSE visible
24 Aug ? 22:06:27 10° NNW 22:09:55 21° W 22:13:16 11° SW visible
25 Aug ? 19:29:50 10° NNE 19:33:19 20° ENE 19:36:50 10° ESE visible
25 Aug ? 21:08:10 10° NNW 21:12:44 58° W 21:16:06 18° SSW visible
26 Aug ? 20:10:38 10° N 20:15:10 49° E 20:18:57 15° SSE visible
26 Aug ? 21:50:16 10° NNW 21:53:56 23° W 21:57:39 10° SW visible
